[[{"header":{"parameterUnit":"m.s-1","parameterCategory":1,"la1":30.2991,"la2":30.254,"lo1":-89.0895,"lo2":-89.0444,"dy":0.0017,"dx":0.0017,"nx":28,"ny":28,"refTime":"2023-06-21T21:00:00:Z","depth":0,"parameterNumber":2,"parameterNumberName":"U-component_of_WINDS"},"data":[0,0,0,0,0,0,0,0,0,0,0,0,0,0,0,0,0,0,0,0,0,0,0,0,0,0,0,0,0,0,0,0,0,0,0,0,0,0,0,0,0,0,0,0,0,0,0,0,0,0,0,0,0,0,0,0,0,0,3.9585,3.9586,0,3.9708,3.9709,3.9711,3.9662,3.9659,3.9656,3.9653,3.9784,3.979,3.9796,0,0,0,0,0,0,0,0,0,0,0,0,0,3.9311,3.9316,3.9585,3.9586,3.9588,3.9708,3.9709,3.9711,3.9662,3.9659,3.9655,3.9652,3.9782,3.9789,3.9797,0,0,0,0,0,0,0,0,0,0,0,0,0,3.9432,3.9318,3.9584,3.9578,3.9578,3.9707,3.9709,3.9712,3.9663,3.9659,3.9654,3.965,3.978,3.9789,3.9798,3.9942,0,0,3.9826,3.983,0,0,0,0,0,0,0,0,3.9425,3.9442,3.9577,3.9579,3.9579,3.9665,3.9661,3.9789,3.9664,3.9631,3.9653,3.9648,3.9748,3.976,3.9793,3.9948,3.9954,3.9827,3.9833,3.9837,3.9839,0,0,0,0,0,0,0,3.9417,3.9436,3.9633,3.9579,3.9581,3.957,3.9582,3.9685,3.9713,3.9634,3.963,3.9645,3.9748,3.9784,3.9795,3.9955,3.9827,3.9835,3.9841,3.9844,4.0233,4.0237,0,0,0,0,0,0,3.9407,3.943,3.963,3.9637,3.949,3.9578,3.9592,3.9642,3.9711,3.9718,3.9649,3.9643,3.977,3.9785,3.98,3.997,3.9836,3.9845,3.985,4.0228,4.0234,4.0239,0,0,0,0,0,0,3.9402,3.9426,3.9625,3.9533,3.9557,3.9588,3.9644,3.9647,3.9682,3.9723,3.9728,3.968,3.9767,3.9787,3.9906,3.9974,3.9849,3.9858,4.0222,4.023,4.0236,4.0314,0,0,0,0,0,0,3.9394,3.9424,3.9478,3.9534,3.9562,3.9728,3.9648,3.9652,3.9698,3.9691,3.9753,3.976,3.9765,3.9892,3.9915,3.9985,3.9865,4.0216,4.0226,4.0234,4.0305,4.0322,4.0337,0,0,0,0,0,3.9384,3.9497,3.9481,3.9505,3.963,3.9732,3.9748,3.9751,3.9704,3.9758,3.9784,3.9758,3.9964,3.9905,3.993,4.0003,4.0212,4.0223,4.0233,4.0298,4.0319,4.0337,0,0,0,0,0,0,3.945,3.9504,3.9487,3.9621,3.9672,3.9723,3.9792,3.9774,3.9841,3.9831,3.9834,3.9848,3.9971,4.0,3.9933,4.0145,4.0081,4.0097,4.0121,4.0142,4.0158,4.0147,3.9873,0,0,0,0,0,3.9479,3.9556,3.96,3.9713,3.974,3.9762,3.9806,3.9804,3.9858,3.988,3.9914,3.9969,4.0045,4.0096,4.0169,4.031,4.0322,4.0373,4.0389,4.0402,4.0415,4.049,4.0512,4.0274,4.0274,4.0274,0,0,3.9542,3.9581,3.9629,3.9727,3.9767,3.9846,3.9781,3.9868,3.9927,3.9894,4.0006,4.0034,4.0095,4.0225,4.0284,4.0253,4.0484,4.0416,4.0426,4.0432,4.0503,4.0525,4.0545,4.0281,4.028,4.0279,0,0,3.9695,3.9733,3.983,3.9871,3.993,3.9944,3.9968,4.0023,4.0039,4.0152,4.0128,4.0199,4.0332,4.0375,4.0415,4.0584,4.0561,4.0609,4.0692,4.0764,4.0783,4.0799,4.0857,4.0878,4.0622,4.0622,4.0623,0,3.9765,3.9882,3.9883,3.9972,4.0015,3.9987,4.0085,4.0125,4.0207,4.0237,4.0201,4.0365,4.0405,4.0543,4.0584,4.0618,4.0644,4.06,4.078,4.0797,4.0812,4.0867,4.0889,4.0627,4.0627,4.0626,4.0626,0,3.9964,4.0046,4.0118,4.0194,4.0246,4.034,4.0355,4.0408,4.0402,4.042,4.0535,4.0581,4.0662,4.0696,4.0692,4.0833,4.0811,4.0778,4.0713,4.084,4.0891,4.0912,4.0635,4.0633,4.0631,4.063,0,0,4.016,4.0235,4.0261,4.0294,4.0358,4.0422,4.0515,4.0591,4.0635,4.0694,4.077,4.0882,4.0851,4.0896,4.0897,4.0961,4.1088,4.092,4.0921,4.0946,4.1244,4.1266,4.129,4.1075,4.1079,4.1082,4.1238,0,4.0315,4.0474,4.0477,4.0624,4.0699,4.0673,4.0754,4.0802,4.0822,4.0889,4.0912,4.099,4.0945,4.0971,4.1033,4.1059,4.1148,4.1049,4.1145,4.1148,4.1126,4.1317,4.1341,4.1485,4.1258,4.1262,4.1264,0,4.0517,4.0578,4.0731,4.0782,4.0814,4.0885,4.0955,4.102,4.1075,4.1085,4.1134,4.1125,4.122,4.1154,4.1283,4.1216,4.1256,4.1275,4.128,4.1286,4.1211,4.1325,4.1532,4.1552,4.1296,4.1294,4.1291,0,4.0639,4.0761,4.0867,4.0897,4.0961,4.1011,4.104,4.109,4.1136,4.1198,4.1227,4.1301,4.134,4.1398,4.1408,4.136,4.1537,4.1473,4.1547,4.1546,4.1582,4.1579,4.1794,4.1615,4.1615,4.1614,4.1614,0,4.081,4.0904,4.0923,4.0988,4.1092,4.1096,4.12,4.1225,4.127,4.1339,4.1325,4.1391,4.1403,4.1472,4.1482,4.1586,4.1605,4.1615,4.1616,4.1614,4.1612,4.1637,4.1626,4.162,4.1619,4.1617,4.1616,0,4.0963,4.098,4.1093,4.1144,4.1159,4.1233,4.1276,4.1339,4.1357,4.1446,4.1467,4.1496,4.1576,4.1593,4.169,4.1696,4.1819,4.1812,4.1799,4.1797,4.1869,4.186,4.2105,4.2136,4.1939,4.1941,4.1943,0,4.1069,4.114,4.1197,4.1242,4.1272,4.1346,4.1391,4.1399,4.1447,4.1514,4.1568,4.1647,4.1709,4.1839,4.1869,4.1942,4.1934,4.2015,4.1945,4.194,4.1931,4.1925,4.1931,4.2027,4.2029,4.2031,4.2033,0,4.1254,4.1258,4.1323,4.1392,4.1446,4.1501,4.1553,4.1592,4.1606,4.1662,4.1742,4.1791,4.1888,4.1965,4.2038,4.2069,4.2053,4.2055,4.2075,4.2072,4.206,4.2063,4.1831,4.2048,4.2047,4.2046,4.2045,4.2044,4.1384,4.1444,4.1493,4.1567,4.1606,4.1655,4.1715,4.1741,4.1807,4.1885,4.1887,4.1974,4.2027,4.2123,4.2158,4.2227,4.2202,4.2232,4.2239,4.2246,4.225,4.2052,4.2241,4.2241,4.224,4.224,4.224,0,4.1564,4.1594,4.1662,4.1734,4.1791,4.1771,4.1828,4.1877,4.1954,4.2003,4.2064,4.2157,4.2232,4.2268,4.2342,4.239,4.2384,4.2409,4.2403,4.241,4.227,4.2243,4.2412,4.2412,4.2412,4.2412,4.2412,4.2411,4.1664,4.1765,4.1775,4.1896,4.1926,4.201,4.2043,4.2088,4.2127,4.223,4.2291,4.2314,4.2358,4.2435,4.2502,4.2511,4.2538,4.2565,4.257,4.2438,4.242,4.2403,4.2378,4.2572,4.2572,4.2703,4.2704,4.2705]},{"header":{"parameterUnit":"m.s-1","parameterCategory":1,"la1":30.2991,"la2":30.254,"lo1":-89.0895,"lo2":-89.0444,"dy":0.0017,"dx":0.0017,"nx":28,"ny":28,"refTime":"2023-06-21T21:00:00:Z","depth":0,"parameterNumber":3,"parameterNumberName":"V-component_of_WINDS"},"data":[0,0,0,0,0,0,0,0,0,0,0,0,0,0,0,0,0,0,0,0,0,0,0,0,0,0,0,0,0,0,0,0,0,0,0,0,0,0,0,0,0,0,0,0,0,0,0,0,0,0,0,0,0,0,0,0,0,0,4.8423,4.8424,0,4.8539,4.854,4.8542,4.852,4.8518,4.8516,4.8514,4.8623,4.8627,4.8632,0,0,0,0,0,0,0,0,0,0,0,0,0,4.8171,4.8176,4.8423,4.8424,4.8426,4.8539,4.854,4.8542,4.8521,4.8518,4.8516,4.8514,4.8621,4.8627,4.8633,0,0,0,0,0,0,0,0,0,0,0,0,0,4.8283,4.8177,4.8423,4.8429,4.8431,4.8539,4.854,4.8542,4.8521,4.8518,4.8515,4.8512,4.8619,4.8626,4.8633,4.8738,0,0,4.8655,4.8658,0,0,0,0,0,0,0,0,4.8276,4.8292,4.8427,4.8429,4.8431,4.8512,4.8491,4.8608,4.8522,4.8487,4.8514,4.8511,4.8588,4.8597,4.8625,4.8744,4.8748,4.8656,4.866,4.8663,4.8665,0,0,0,0,0,0,0,4.8269,4.8287,4.8468,4.8429,4.8431,4.8422,4.8435,4.8513,4.8552,4.8489,4.8488,4.8503,4.8588,4.8619,4.8628,4.875,4.8656,4.8662,4.8666,4.8669,4.8956,4.8959,0,0,0,0,0,0,4.826,4.828,4.8465,4.8472,4.8345,4.8429,4.8443,4.8489,4.8552,4.8559,4.8505,4.8502,4.8608,4.8619,4.8632,4.8757,4.8663,4.867,4.8674,4.8953,4.8957,4.8961,0,0,0,0,0,0,4.8255,4.8277,4.846,4.8376,4.8399,4.8437,4.8488,4.8493,4.8523,4.8564,4.857,4.853,4.8606,4.8621,4.8712,4.876,4.8673,4.868,4.8949,4.8954,4.8959,4.9009,0,0,0,0,0,0,4.8248,4.8275,4.8319,4.8377,4.8403,4.8542,4.8492,4.8498,4.8537,4.8533,4.8588,4.8594,4.8605,4.8701,4.8719,4.8768,4.8685,4.8945,4.8951,4.8957,4.9003,4.9015,4.9025,0,0,0,0,0,4.8239,4.8326,4.8321,4.8343,4.8459,4.8545,4.856,4.8573,4.8541,4.8583,4.8608,4.8593,4.8753,4.8711,4.8731,4.8783,4.8942,4.8949,4.8957,4.8998,4.9012,4.9025,0,0,0,0,0,0,4.8268,4.8334,4.8329,4.8439,4.8487,4.8542,4.8595,4.8588,4.8644,4.8637,4.8648,4.866,4.8752,4.8776,4.8729,4.8886,4.8842,4.8854,4.8867,4.8881,4.8892,4.8882,4.8691,0,0,0,0,0,4.8289,4.8357,4.8409,4.85,4.8525,4.8556,4.8594,4.86,4.8649,4.8668,4.8701,4.8746,4.8806,4.8845,4.8902,4.9007,4.9016,4.9052,4.9063,4.9072,4.9081,4.9135,4.915,4.8985,4.8985,4.8985,0,0,4.8329,4.8373,4.8415,4.8507,4.8546,4.8612,4.8573,4.8646,4.8694,4.8678,4.8766,4.8791,4.8842,4.8939,4.8984,4.8962,4.9129,4.9081,4.9088,4.9093,4.9144,4.916,4.9174,4.899,4.8989,4.8988,0,0,4.8436,4.8479,4.8558,4.8598,4.8657,4.8677,4.8696,4.8752,4.8769,4.8859,4.8847,4.8903,4.9007,4.9043,4.9075,4.9195,4.9181,4.9213,4.927,4.9323,4.9335,4.9347,4.9387,4.9402,4.9223,4.9223,4.9223,0,4.8478,4.8582,4.8599,4.8673,4.8712,4.8705,4.8783,4.8819,4.8893,4.8918,4.8895,4.9024,4.9058,4.9162,4.9192,4.9219,4.9237,4.9206,4.9333,4.9345,4.9356,4.9394,4.9409,4.9226,4.9226,4.9226,4.9225,0,4.8628,4.87,4.8757,4.8832,4.8878,4.8953,4.8978,4.9021,4.9023,4.9044,4.9133,4.9174,4.9238,4.9264,4.9265,4.9368,4.9352,4.9331,4.9286,4.9374,4.941,4.9425,4.9231,4.923,4.9229,4.9228,0,0,4.8756,4.8841,4.8861,4.8894,4.8959,4.9012,4.9086,4.9153,4.9188,4.9239,4.9298,4.9387,4.9367,4.9403,4.9409,4.9455,4.9544,4.9428,4.9429,4.9445,4.9656,4.9669,4.9687,4.9537,4.954,4.9542,4.965,0,4.8867,4.9002,4.9019,4.9136,4.9201,4.9194,4.9258,4.9302,4.9324,4.9378,4.94,4.9462,4.9433,4.9454,4.95,4.9524,4.9586,4.9516,4.9588,4.959,4.9573,4.9706,4.9721,4.9822,4.9665,4.9667,4.9669,0,4.9015,4.9073,4.9198,4.9253,4.9281,4.9338,4.94,4.9454,4.9502,4.9514,4.9555,4.9554,4.9626,4.9581,4.9678,4.963,4.966,4.9676,4.968,4.9685,4.9633,4.9711,4.9854,4.9868,4.9692,4.969,4.9688,0,4.9092,4.9201,4.929,4.9319,4.9386,4.9426,4.9455,4.9501,4.954,4.9592,4.9616,4.9675,4.9707,4.9751,4.9764,4.9731,4.9859,4.9816,4.9868,4.9867,4.9893,4.9891,5.004,4.9917,4.9917,4.9917,4.9916,0,4.9213,4.9288,4.9325,4.9379,4.9463,4.948,4.9561,4.9588,4.9629,4.9685,4.9682,4.9734,4.975,4.9804,4.9814,4.9891,4.9906,4.9914,4.9916,4.9914,4.9912,4.9931,4.9923,4.9921,4.992,4.9919,4.9918,0,4.9311,4.934,4.9436,4.9492,4.9508,4.9567,4.9613,4.9663,4.9684,4.9755,4.9772,4.9804,4.9867,4.9886,4.996,4.9967,5.0056,5.0053,5.0041,5.004,5.009,5.0084,5.0254,5.0276,5.0142,5.0143,5.0144,0,4.9385,4.9444,4.9508,4.9547,4.9579,4.9642,4.9682,4.97,4.9741,4.9801,4.9843,4.9906,4.9957,5.0057,5.0084,5.014,5.0136,5.0192,5.0144,5.0139,5.0133,5.0129,5.0133,5.02,5.0201,5.0202,5.0203,0,4.9512,4.9524,4.9584,4.9649,4.9697,4.9748,4.9797,4.9828,4.9853,4.9898,4.9964,5.0004,5.0082,5.0143,5.02,5.0225,5.0217,5.0219,5.0233,5.023,5.0219,5.0223,5.0062,5.0214,5.0213,5.0212,5.0212,5.0211,4.9599,4.965,4.9703,4.9769,4.9808,4.9854,4.9904,4.9932,4.9989,5.0056,5.0063,5.0133,5.0178,5.0255,5.0283,5.0336,5.0319,5.034,5.0345,5.035,5.0352,5.0214,5.0346,5.0346,5.0346,5.0345,5.0345,0,4.9723,4.9757,4.9818,4.9888,4.9939,4.9932,4.9985,5.0027,5.0091,5.0135,5.0187,5.0261,5.032,5.0353,5.0411,5.0446,5.0444,5.0461,5.0457,5.0462,5.0366,5.0346,5.0462,5.0462,5.0462,5.0462,5.0462,5.0462,4.9793,4.9879,4.9896,5.0,5.0032,5.0104,5.0135,5.0176,5.0211,5.0296,5.0347,5.0369,5.0408,5.0469,5.0521,5.0529,5.0549,5.0567,5.0572,5.0481,5.0469,5.0458,5.0439,5.0572,5.0572,5.0664,5.0665,5.0666]}]]